Overview Statistics Trail Chart Weather Telemetry Raw packets
 

This is the latest recevied weather packets stored in our database for station/object KI5RAB. If no packets are shown the sender has not sent any weather packets the latest 10 day(s).

<< 28 29 30 31 32 33 34 >>
Time Temp. Humidity Pressure Rain* Wind** Luminosity Snow
1788471950 37.78° C 42% 1012.8 hPa 0 mm - 392 W/m² -
1788471645 38.33° C 42% 1012.8 hPa 0 mm - 417 W/m² -
1788471340 37.78° C 42% 1012.9 hPa 0 mm - 435 W/m² -
1788471036 37.78° C 42% 1013 hPa 0 mm - 248 W/m² -
1788470732 38.89° C 40% 1012.9 hPa 0 mm - 451 W/m² -
1788470427 37.78° C 42% 1013.1 hPa 0 mm - 468 W/m² -
1788470122 37.22° C 42% 1013.3 hPa 0 mm - 283 W/m² -
1788469819 37.22° C 42% 1013.3 hPa 0 mm - 491 W/m² -
1788469519 38.33° C 42% 1013.4 hPa 0 mm - 502 W/m² -
1788469215 38.89° C 43% 1013.4 hPa 0 mm - 531 W/m² -
1788468908 38.89° C 41% 1013.5 hPa 0 mm - 544 W/m² -
1788468603 39.44° C 43% 1013.5 hPa 0 mm - 546 W/m² -
1788468299 38.33° C 41% 1013.5 hPa 0 mm - 553 W/m² -
1788467994 37.78° C 43% 1013.5 hPa 0 mm - 557 W/m² -
1788467690 37.78° C 42% 1013.8 hPa 0 mm - 571 W/m² -
1788467388 38.33° C 42% 1013.8 hPa 0 mm - 571 W/m² -
1788467084 38.33° C 42% 1013.8 hPa 0 mm - 587 W/m² -
1788466779 38.89° C 43% 1013.9 hPa 0 mm - 597 W/m² -
1788466474 38.33° C 45% 1014.1 hPa 0 mm - 599 W/m² -
1788466173 37.78° C 42% 1014 hPa 0 mm - 616 W/m² -
1788465868 37.78° C 44% 1014.2 hPa 0 mm - 622 W/m² -
1788465563 37.22° C 45% 1014.1 hPa 0 mm - 631 W/m² -
1788465260 37.22° C 45% 1014.2 hPa 0 mm - 632 W/m² -
1788464955 37.22° C 44% 1014.2 hPa 0 mm - 643 W/m² -
1788464650 37.22° C 45% 1014.5 hPa 0 mm - 652 W/m² -

* Rain latest hour (hover to see other rain measurements)
** Current wind speed in m/s (hover to see current wind gust speed)